CW3847 La Orotava ES current weather conditions

sailwx.info

Wind from 352 at 2 knots gusting 6

Air temperature 16.7° C
Dewpoint 10.7° C

Last reported at 2017-Jan-23 13:50 UTC.
Time now 2017-Jan-23 14:56 UTC

Location: N 28°23' W 016°31'.
View on Google Maps.

See reports from other nearby stations

  
Tides and Currents Weather Stations Pressure Air Temp Water Temp Dewpoint Dewpoint Depression Visibility Wind Speed Wind Dir Waves Ship Positions
date/time (UTC)wind fromknots sea level pressurealtimeterstation pressurevisibilityair tempwater tempwave heightnotes
2017-Jan-23 13:50 352 2 gusting 6 16.7
2017-Jan-23 13:45 352 2 gusting 4 17.2
2017-Jan-23 13:40 355 2 gusting 6 17.2
2017-Jan-23 13:35 358 2 gusting 6 17.2
2017-Jan-23 13:30 352 2 gusting 7 16.7
2017-Jan-23 13:25 353 3 gusting 7 17.2
2017-Jan-23 13:20 347 3 gusting 6 17.2
2017-Jan-23 13:15 337 2 gusting 6 16.7
2017-Jan-23 13:10 334 2 gusting 6 16.7
2017-Jan-23 13:05 342 2 gusting 6 16.7
2017-Jan-23 13:00 352 2 gusting 6 16.7
2017-Jan-23 12:55 356 2 gusting 5 16.7
2017-Jan-23 12:50 357 1 gusting 4 16.7
2017-Jan-23 12:45 001 1 gusting 4 16.7
2017-Jan-23 12:40 358 1 gusting 4 16.7
2017-Jan-23 12:35 004 1 gusting 4 16.7
2017-Jan-23 12:30 008 2 gusting 4 16.7
2017-Jan-23 12:25 007 2 gusting 5 16.1
2017-Jan-23 12:20 006 2 gusting 6 16.1
2017-Jan-23 12:15 001 3 gusting 7 16.1
2017-Jan-23 12:10 351 4 gusting 7 16.7
2017-Jan-23 12:05 352 4 gusting 7 16.7
2017-Jan-23 12:00 009 3 gusting 7 17.2
2017-Jan-23 11:55 025 3 gusting 6 17.8
2017-Jan-23 11:50 055 2 gusting 5 17.8
2017-Jan-23 11:45 127 1 gusting 3 17.8
2017-Jan-23 11:40 128 1 gusting 3 17.8
2017-Jan-23 11:35 123 0 gusting 3 17.8
2017-Jan-23 11:30 147 1 gusting 3 17.8
2017-Jan-23 11:25 183 1 gusting 4 17.8
2017-Jan-23 11:20 205 1 gusting 4 17.2
2017-Jan-23 11:15 314 0 gusting 3 16.7
2017-Jan-23 11:10 342 0 gusting 2 16.7
2017-Jan-23 11:05 342 0 gusting 2 16.1
2017-Jan-23 11:00 333 0 gusting 3 16.1
2017-Jan-23 10:55 323 0 gusting 3 16.1
2017-Jan-23 10:50 304 1 gusting 3 16.1
2017-Jan-23 10:45 316 0 gusting 3 16.1
2017-Jan-23 10:40 012 0 gusting 1 16.1
2017-Jan-23 10:35 019 0 gusting 3 16.1
2017-Jan-23 10:30 038 1 gusting 3 15.6
2017-Jan-23 10:25 046 1 gusting 5 16.1
2017-Jan-23 10:20 047 2 gusting 6 15.6
2017-Jan-23 10:15 042 3 gusting 8 16.1
2017-Jan-23 10:10 056 2 gusting 8 16.1
2017-Jan-23 10:05 161 2 gusting 6 15.6
2017-Jan-23 10:00 160 3 gusting 6 15.0
2017-Jan-23 09:55 165 3 gusting 6 14.4
2017-Jan-23 09:50 174 3 gusting 6 13.9
2017-Jan-23 09:45 176 3 gusting 6 13.3
2017-Jan-23 09:40 174 2 gusting 5 13.3
2017-Jan-23 09:35 174 2 gusting 5 12.8
2017-Jan-23 09:30 174 2 gusting 4 12.2
2017-Jan-23 09:25 172 1 gusting 4 12.2
2017-Jan-23 09:20 171 1 gusting 3 12.2
2017-Jan-23 09:15 171 1 gusting 4 12.2
2017-Jan-23 09:10 174 2 gusting 5 12.2
2017-Jan-23 09:05 175 2 gusting 5 11.7
2017-Jan-23 09:00 174 2 gusting 5 11.7
2017-Jan-23 08:55 175 2 gusting 5 11.7
2017-Jan-23 08:50 175 2 gusting 5 11.7
2017-Jan-23 08:45 175 2 gusting 5 11.7
2017-Jan-23 08:40 174 2 gusting 5 11.7
2017-Jan-23 08:35 175 2 gusting 5 11.7
2017-Jan-23 08:30 175 2 gusting 5 11.7
2017-Jan-23 08:25 175 2 gusting 5 11.7
2017-Jan-23 08:20 173 2 gusting 4 11.7
2017-Jan-23 08:15 174 1 gusting 4 11.1
2017-Jan-23 08:10 175 1 gusting 4 11.1
2017-Jan-23 08:05 175 2 gusting 5 11.1
2017-Jan-23 08:00 174 3 gusting 5 11.1
2017-Jan-23 07:55 174 3 gusting 6 11.1
2017-Jan-23 07:50 173 3 gusting 6 11.1
2017-Jan-23 07:45 173 3 gusting 6 11.1
2017-Jan-23 07:40 174 3 gusting 6 11.1
2017-Jan-23 07:35 172 2 gusting 5 11.1
2017-Jan-23 07:30 171 2 gusting 5 11.1
2017-Jan-23 07:25 171 2 gusting 4 11.1
2017-Jan-23 07:20 171 2 gusting 4 11.1
2017-Jan-23 07:15 172 2 gusting 5 11.1
2017-Jan-23 07:10 173 2 gusting 5 11.1
2017-Jan-23 07:05 173 2 gusting 5 11.1
2017-Jan-23 07:00 174 2 gusting 5 11.1
2017-Jan-23 06:55 178 2 gusting 4 11.1
2017-Jan-23 06:50 178 2 gusting 4 11.7
2017-Jan-23 06:45 177 1 gusting 4 11.7
2017-Jan-23 06:40 177 1 gusting 2 11.7
2017-Jan-23 06:35 177 1 gusting 3 11.7
2017-Jan-23 06:30 177 1 gusting 3 11.7
2017-Jan-23 06:25 176 1 gusting 4 11.7
2017-Jan-23 06:20 173 1 gusting 5 11.7
2017-Jan-23 06:15 172 1 gusting 5 11.7
2017-Jan-23 06:10 173 1 gusting 4 11.7
2017-Jan-23 06:05 172 2 gusting 5 11.7
2017-Jan-23 06:00 172 1 gusting 5 11.7
2017-Jan-23 05:55 173 1 gusting 4 11.7
2017-Jan-23 05:50 174 1 gusting 4 11.7
2017-Jan-23 05:45 175 1 gusting 3 11.7
2017-Jan-23 05:40 172 1 gusting 4 11.7
2017-Jan-23 05:35 173 2 gusting 4 11.1
2017-Jan-23 05:30 173 2 gusting 4 11.1
2017-Jan-23 05:25 171 2 gusting 4 11.1
2017-Jan-23 05:20 172 2 gusting 5 11.1
2017-Jan-23 05:15 174 2 gusting 6 11.1
2017-Jan-23 05:10 174 2 gusting 6 11.1
2017-Jan-23 05:05 170 3 gusting 5 11.7
2017-Jan-23 05:00 168 3 gusting 5 11.7
2017-Jan-23 04:55 171 2 gusting 5 11.7
2017-Jan-23 04:50 173 2 gusting 5 11.7
2017-Jan-23 04:45 176 2 gusting 5 11.7
2017-Jan-23 04:40 177 2 gusting 5 11.7
2017-Jan-23 04:35 176 2 gusting 5 11.7
2017-Jan-23 04:30 172 2 gusting 5 11.7
2017-Jan-23 04:25 166 3 gusting 5 11.7
2017-Jan-23 04:20 165 3 gusting 6 11.7
2017-Jan-23 04:15 167 3 gusting 6 11.7
2017-Jan-23 04:10 170 3 gusting 5 11.7
2017-Jan-23 04:05 171 3 gusting 5 11.7
2017-Jan-23 04:00 170 3 gusting 5 11.7
2017-Jan-23 03:55 170 2 gusting 5 11.7
2017-Jan-23 03:50 173 2 gusting 5 11.7
2017-Jan-23 03:45 172 2 gusting 5 11.7
2017-Jan-23 03:40 171 2 gusting 4 11.7
2017-Jan-23 03:35 169 3 gusting 5 11.7
2017-Jan-23 03:30 168 3 gusting 5 11.7
2017-Jan-23 03:25 171 2 gusting 6 11.7
2017-Jan-23 03:20 169 2 gusting 6 11.7
2017-Jan-23 03:15 168 3 gusting 5 11.7
2017-Jan-23 03:10 169 3 gusting 7 11.7
2017-Jan-23 03:05 171 4 gusting 7 11.7
2017-Jan-23 03:00 171 3 gusting 6 11.7
2017-Jan-23 02:55 168 3 gusting 5 11.7
2017-Jan-23 02:50 167 4 gusting 6 11.7
2017-Jan-23 02:45 168 4 gusting 7 11.7
2017-Jan-23 02:40 170 4 gusting 7 11.7
2017-Jan-23 02:35 171 4 gusting 7 11.7
2017-Jan-23 02:30 172 3 gusting 5 11.7
2017-Jan-23 02:25 172 3 gusting 6 11.7
2017-Jan-23 02:20 172 3 gusting 6 11.7
2017-Jan-23 02:15 167 3 gusting 5 11.7
2017-Jan-23 02:10 166 3 gusting 5 11.7
2017-Jan-23 02:05 166 3 gusting 5 11.7
2017-Jan-23 02:00 164 3 gusting 6 11.7
2017-Jan-23 01:55 167 3 gusting 6 11.7
2017-Jan-23 01:50 171 3 gusting 5 11.7
2017-Jan-23 01:45 170 3 gusting 5 11.7
2017-Jan-23 01:40 172 3 gusting 5 11.7
2017-Jan-23 01:35 174 3 gusting 5 11.7
2017-Jan-23 01:30 173 3 gusting 6 11.7
2017-Jan-23 01:25 171 3 gusting 6 11.7
2017-Jan-23 01:20 169 3 gusting 6 11.7
2017-Jan-23 01:15 170 3 gusting 6 11.7
2017-Jan-23 01:10 174 3 gusting 6 11.7
2017-Jan-23 01:05 175 2 gusting 6 11.7
2017-Jan-23 01:00 183 2 gusting 6 11.7
2017-Jan-23 00:55 182 2 gusting 5 11.7
2017-Jan-23 00:50 173 2 gusting 5 11.7
2017-Jan-23 00:45 177 3 gusting 6 11.7
2017-Jan-23 00:40 177 3 gusting 6 11.7
2017-Jan-23 00:35 176 3 gusting 6 12.2
2017-Jan-23 00:30 174 3 gusting 6 12.2
2017-Jan-23 00:25 165 2 gusting 5 12.8
2017-Jan-23 00:20 158 2 gusting 5 12.8
2017-Jan-23 00:15 155 2 gusting 6 12.2
2017-Jan-23 00:10 164 3 gusting 6 12.2
2017-Jan-23 00:05 168 3 gusting 7 12.2
2017-Jan-23 00:00 159 5 gusting 7 12.2
2017-Jan-22 23:55 154 5 gusting 7 12.2
2017-Jan-22 23:50 157 4 gusting 7 12.2
2017-Jan-22 23:45 161 3 gusting 6 12.8
2017-Jan-22 23:40 160 5 gusting 8 12.8
2017-Jan-22 23:35 158 6 gusting 10 12.8
2017-Jan-22 23:30 155 6 gusting 11 12.8
2017-Jan-22 23:25 160 5 gusting 11 12.2
2017-Jan-22 23:20 183 2 gusting 5 12.2
2017-Jan-22 23:15 185 2 gusting 6 12.2
2017-Jan-22 23:10 177 2 gusting 6 12.2
2017-Jan-22 23:05 172 2 gusting 5 12.2
2017-Jan-22 23:00 172 2 gusting 5 12.2
2017-Jan-22 22:55 172 3 gusting 5 12.2
2017-Jan-22 22:50 172 2 gusting 5 12.2
2017-Jan-22 22:45 173 2 gusting 5 12.2
2017-Jan-22 22:40 173 2 gusting 4 12.2
2017-Jan-22 22:35 173 3 gusting 5 11.7
2017-Jan-22 22:30 173 3 gusting 6 11.7
2017-Jan-22 22:25 172 3 gusting 6 11.7
2017-Jan-22 22:20 171 3 gusting 6 11.7
2017-Jan-22 22:15 171 3 gusting 5 11.7
2017-Jan-22 22:10 172 3 gusting 5 11.7
2017-Jan-22 22:05 173 2 gusting 5 11.7
2017-Jan-22 22:00 172 3 gusting 7 11.7
2017-Jan-22 21:55 173 3 gusting 7 11.7
2017-Jan-22 21:50 174 3 gusting 6 11.7
2017-Jan-22 21:45 173 2 gusting 6 12.2
2017-Jan-22 21:40 173 2 gusting 6 12.2
2017-Jan-22 21:35 174 2 gusting 5 11.7
2017-Jan-22 21:30 174 1 gusting 5 12.2
2017-Jan-22 21:25 174 1 gusting 3 12.2
2017-Jan-22 21:20 175 1 gusting 3 12.2
2017-Jan-22 21:15 175 2 gusting 5 12.2
2017-Jan-22 21:10 174 2 gusting 5 12.2
2017-Jan-22 21:05 174 1 gusting 5 12.2
2017-Jan-22 21:00 175 1 gusting 5 12.2
2017-Jan-22 20:55 175 1 gusting 5 12.2
2017-Jan-22 20:50 175 2 gusting 5 12.2
2017-Jan-22 20:45 176 2 gusting 4 12.2
2017-Jan-22 20:40 176 1 gusting 3 12.2
2017-Jan-22 20:35 175 1 gusting 6 12.2
2017-Jan-22 20:30 173 2 gusting 6 12.2
2017-Jan-22 20:25 172 2 gusting 5 12.2
2017-Jan-22 20:20 173 2 gusting 6 12.2
2017-Jan-22 20:15 174 2 gusting 6 12.2
2017-Jan-22 20:10 175 2 gusting 5 12.2
2017-Jan-22 20:05 173 2 gusting 5 12.2
2017-Jan-22 20:00 173 1 gusting 4 12.8
2017-Jan-22 19:55 174 1 gusting 4 12.8
2017-Jan-22 19:50 173 1 gusting 4 12.8
2017-Jan-22 19:45 172 1 gusting 4 12.8
2017-Jan-22 19:40 171 1 gusting 4 12.8
2017-Jan-22 19:35 151 1 gusting 4 12.8
2017-Jan-22 19:30 011 1 gusting 4 13.3
2017-Jan-22 19:25 006 0 gusting 2 13.3
2017-Jan-22 19:20 006 13.3
2017-Jan-22 19:15 005 13.3
2017-Jan-22 19:10 006 13.3
2017-Jan-22 19:05 006 13.3
2017-Jan-22 19:00 005 13.9
2017-Jan-22 18:55 006 13.9
2017-Jan-22 18:50 005 13.9
2017-Jan-22 18:45 005 13.9
2017-Jan-22 18:40 005 13.9
2017-Jan-22 18:35 006 13.9
2017-Jan-22 18:30 006 0 gusting 2 14.4
2017-Jan-22 18:25 006 1 gusting 3 14.4
2017-Jan-22 18:20 006 1 gusting 3 14.4
2017-Jan-22 18:15 006 1 gusting 3 14.4
2017-Jan-22 18:10 006 1 gusting 3 14.4
2017-Jan-22 18:05 006 1 gusting 3 14.4
2017-Jan-22 18:00 006 1 gusting 3 14.4
2017-Jan-22 17:55 006 1 gusting 3 14.4
2017-Jan-22 17:50 006 0 gusting 3 14.4
2017-Jan-22 17:45 006 0 gusting 2 14.4
2017-Jan-22 17:40 006 0 gusting 2 14.4
2017-Jan-22 17:35 006 1 gusting 3 14.4
2017-Jan-22 17:30 006 1 gusting 3 14.4
2017-Jan-22 17:25 359 2 gusting 4 14.4
2017-Jan-22 17:20 353 2 gusting 4 15.0
2017-Jan-22 17:15 350 1 gusting 3 15.0
2017-Jan-22 17:10 349 1 gusting 3 15.0
2017-Jan-22 17:05 350 2 gusting 4 15.0
2017-Jan-22 17:00 344 3 gusting 5 15.0
2017-Jan-22 16:55 339 3 gusting 5 15.0
2017-Jan-22 16:50 342 1 gusting 4 15.0
2017-Jan-22 16:45 008 1 gusting 4 15.0
2017-Jan-22 16:40 003 2 gusting 4 15.0
2017-Jan-22 16:35 353 2 gusting 4 15.0
2017-Jan-22 16:30 002 1 gusting 4 15.0
2017-Jan-22 16:25 004 2 gusting 6 15.0
2017-Jan-22 16:20 357 2 gusting 6 15.0
2017-Jan-22 16:15 347 2 gusting 6 15.0
2017-Jan-22 16:10 334 3 gusting 6 15.0
2017-Jan-22 16:05 337 3 gusting 6 15.0
2017-Jan-22 16:00 344 2 gusting 6 15.0
2017-Jan-22 15:55 344 2 gusting 6 15.0
2017-Jan-22 15:50 352 3 gusting 6 15.0
2017-Jan-22 15:45 355 2 gusting 5 15.6
2017-Jan-22 15:40 015 2 gusting 5 15.6
2017-Jan-22 15:35 021 2 gusting 6 15.6
2017-Jan-22 15:30 355 2 gusting 6 15.6
2017-Jan-22 15:25 007 2 gusting 6 15.6
2017-Jan-22 15:20 007 2 gusting 5 15.6
2017-Jan-22 15:15 343 2 gusting 5 15.6
2017-Jan-22 15:10 346 3 gusting 7 15.6
2017-Jan-22 15:05 356 3 gusting 8 15.6
2017-Jan-22 15:00 013 2 gusting 8 15.6
2017-Jan-22 14:55 003 3 gusting 8 15.6
2017-Jan-22 14:50 002 3 gusting 8 15.6
2017-Jan-22 14:45 003 3 gusting 7 15.6
2017-Jan-22 14:40 358 2 gusting 7 15.0
2017-Jan-22 14:35 001 3 gusting 7 15.0
2017-Jan-22 14:30 347 3 gusting 6 15.0
2017-Jan-22 14:25 347 3 gusting 7 15.0
2017-Jan-22 14:20 358 3 gusting 7 15.0
2017-Jan-22 14:15 355 4 gusting 7 15.0
2017-Jan-22 14:10 006 3 gusting 7 15.0
2017-Jan-22 14:05 041 2 gusting 6 15.0
2017-Jan-22 14:00 022 3 gusting 6 15.0
2017-Jan-22 13:55 356 4 gusting 7 15.0
2017-Jan-22 13:50 352 4 gusting 8 15.0
2017-Jan-22 13:45 350 5 gusting 8 15.6
2017-Jan-22 13:40 343 5 gusting 7 15.6
2017-Jan-22 13:35 338 4 gusting 9 15.6
2017-Jan-22 13:30 337 4 gusting 9 15.6
2017-Jan-22 13:25 338 3 gusting 7 15.6
2017-Jan-22 13:20 343 2 gusting 6 15.6
2017-Jan-22 13:15 001 2 gusting 6 15.6
2017-Jan-22 13:10 005 3 gusting 6 15.0
2017-Jan-22 13:05 007 2 gusting 6 15.0
2017-Jan-22 13:00 010 3 gusting 7 15.6
2017-Jan-22 12:55 355 3 gusting 7 15.0
2017-Jan-22 12:50 346 4 gusting 8 15.6
2017-Jan-22 12:45 355 3 gusting 8 15.6
2017-Jan-22 12:40 024 3 gusting 7 15.6
2017-Jan-22 12:35 024 3 gusting 6 16.1
2017-Jan-22 12:30 357 2 gusting 6 15.6
2017-Jan-22 12:25 356 2 gusting 5 15.6
2017-Jan-22 12:20 014 2 gusting 8 15.6
2017-Jan-22 12:15 014 3 gusting 8 15.6
2017-Jan-22 12:10 026 2 gusting 6 15.6
2017-Jan-22 12:05 042 3 gusting 6 15.6
2017-Jan-22 12:00 021 3 gusting 7 15.6
2017-Jan-22 11:55 010 3 gusting 7 15.6
2017-Jan-22 11:50 012 3 gusting 8 15.6
2017-Jan-22 11:45 014 3 gusting 8 15.6
2017-Jan-22 11:40 013 3 gusting 7 15.6
2017-Jan-22 11:35 006 3 gusting 6 15.6
2017-Jan-22 11:30 359 2 gusting 6 15.6
2017-Jan-22 11:25 359 3 gusting 7 15.0
2017-Jan-22 11:20 012 2 gusting 7 15.6
2017-Jan-22 11:15 035 2 gusting 5 15.6
2017-Jan-22 11:10 068 1 gusting 5 15.6
2017-Jan-22 11:05 093 0 gusting 2 15.0
2017-Jan-22 11:00 094 0 gusting 2 15.0
2017-Jan-22 10:55 094 15.0
2017-Jan-22 10:50 094 15.0
2017-Jan-22 10:45 094 0 gusting 2 15.0
2017-Jan-22 10:40 095 0 gusting 5 15.0
2017-Jan-22 10:35 100 0 gusting 5 15.0
2017-Jan-22 10:30 108 15.0
2017-Jan-22 10:25 117 15.0
2017-Jan-22 10:20 117 15.0
2017-Jan-22 10:15 14.4
2017-Jan-22 10:10 117 14.4
2017-Jan-22 10:05 117 13.9
2017-Jan-22 10:00 116 13.9
2017-Jan-22 09:55 116 13.9
2017-Jan-22 09:50 116 0 gusting 1 13.3
2017-Jan-22 09:45 117 0 gusting 2 13.3
2017-Jan-22 09:40 114 0 gusting 2 13.3
2017-Jan-22 09:35 113 0 gusting 2 13.3
2017-Jan-22 09:30 113 0 gusting 1 13.3
2017-Jan-22 09:25 107 1 gusting 2 13.3
2017-Jan-22 09:20 096 1 gusting 2 13.3
2017-Jan-22 09:15 081 0 gusting 2 13.3
2017-Jan-22 09:10 077 1 gusting 4 13.3
2017-Jan-22 09:05 096 1 gusting 5 13.3
2017-Jan-22 09:00 136 1 gusting 5 13.3
2017-Jan-22 08:55 149 1 gusting 3 13.3
2017-Jan-22 08:50 150 0 gusting 2 13.3
2017-Jan-22 08:45 150 1 gusting 2 13.3
2017-Jan-22 08:40 153 1 gusting 3 12.8
2017-Jan-22 08:35 157 1 gusting 4 12.8
2017-Jan-22 08:30 159 1 gusting 4 12.8
2017-Jan-22 08:25 163 2 gusting 6 12.8
2017-Jan-22 08:20 165 3 gusting 6 12.8
2017-Jan-22 08:15 169 3 gusting 6 12.8
2017-Jan-22 08:10 161 2 gusting 5 12.8
2017-Jan-22 08:05 091 3 gusting 7 13.3
2017-Jan-22 08:00 052 3 gusting 9 13.3
2017-Jan-22 07:55 063 2 gusting 9 13.3
2017-Jan-22 07:50 145 1 gusting 3 13.3
2017-Jan-22 07:45 145 1 gusting 3 13.3
2017-Jan-22 07:40 154 1 gusting 4 13.3
2017-Jan-22 07:35 165 1 gusting 4 13.3
2017-Jan-22 07:30 172 1 gusting 4 13.3
2017-Jan-22 07:25 174 1 gusting 6 13.3
2017-Jan-22 07:20 177 3 gusting 6 12.8
2017-Jan-22 07:15 175 3 gusting 6 12.8
2017-Jan-22 07:10 170 4 gusting 7 12.8
2017-Jan-22 07:05 170 3 gusting 7 12.8
2017-Jan-22 07:00 172 3 gusting 6 12.8
2017-Jan-22 06:55 173 2 gusting 6 12.8
2017-Jan-22 06:50 170 3 gusting 7 12.8
2017-Jan-22 06:45 169 3 gusting 7 12.8
2017-Jan-22 06:40 169 3 gusting 5 12.8
2017-Jan-22 06:35 168 2 gusting 5 12.8
2017-Jan-22 06:30 168 2 gusting 5 12.8
2017-Jan-22 06:25 168 1 gusting 5 13.3
2017-Jan-22 06:20 169 0 gusting 3 13.3
2017-Jan-22 06:15 169 0 gusting 3 13.3
2017-Jan-22 06:10 169 0 gusting 3 13.3
2017-Jan-22 06:05 169 0 gusting 1 13.3
2017-Jan-22 06:00 169 0 gusting 3 12.8
2017-Jan-22 05:55 169 0 gusting 3 12.8
2017-Jan-22 05:50 168 1 gusting 4 12.8
2017-Jan-22 05:45 168 2 gusting 4 12.8
2017-Jan-22 05:40 169 1 gusting 3 12.8
2017-Jan-22 05:35 169 1 gusting 3 12.8
2017-Jan-22 05:30 168 1 gusting 4 12.8
2017-Jan-22 05:25 169 2 gusting 4 12.8
2017-Jan-22 05:20 168 1 gusting 4 12.8
2017-Jan-22 05:15 168 1 gusting 4 12.8
2017-Jan-22 05:10 168 2 gusting 4 12.8
2017-Jan-22 05:05 168 2 gusting 5 12.8
2017-Jan-22 05:00 168 2 gusting 5 12.8
2017-Jan-22 04:55 168 1 gusting 4 12.8
2017-Jan-22 04:50 169 2 gusting 4 12.8
2017-Jan-22 04:45 168 1 gusting 3 12.8
2017-Jan-22 04:40 169 1 gusting 5 13.3
2017-Jan-22 04:35 165 2 gusting 5 13.3
2017-Jan-22 04:30 159 2 gusting 5 13.3
2017-Jan-22 04:25 158 1 gusting 4 13.3
2017-Jan-22 04:20 158 2 gusting 5 13.3
2017-Jan-22 04:15 159 2 gusting 5 13.3
2017-Jan-22 04:10 158 1 gusting 4 13.3
2017-Jan-22 04:05 158 1 gusting 4 13.3
2017-Jan-22 04:00 159 2 gusting 4 13.3
2017-Jan-22 03:55 159 2 gusting 4 13.3
2017-Jan-22 03:50 158 1 gusting 4 13.3
2017-Jan-22 03:45 159 1 gusting 4 13.3
2017-Jan-22 03:40 159 1 gusting 4 13.3
2017-Jan-22 03:35 159 1 gusting 3 13.3
2017-Jan-22 03:30 158 1 gusting 3 13.3
2017-Jan-22 03:25 158 1 gusting 4 13.9
2017-Jan-22 03:20 159 1 gusting 4 13.9
2017-Jan-22 03:15 161 1 gusting 4 13.9
2017-Jan-22 03:10 164 1 gusting 4 13.9
2017-Jan-22 03:05 165 1 gusting 4 13.9
2017-Jan-22 03:00 165 2 gusting 5 13.9
2017-Jan-22 02:55 165 3 gusting 6 13.9
2017-Jan-22 02:50 163 4 gusting 6 13.3
2017-Jan-22 02:45 159 4 gusting 6 13.3
2017-Jan-22 02:40 158 5 gusting 9 13.3
2017-Jan-22 02:35 158 6 gusting 9 13.3
2017-Jan-22 02:30 158 6 gusting 8 13.3
2017-Jan-22 02:25 159 5 gusting 9 13.3
2017-Jan-22 02:20 162 4 gusting 9 13.3
2017-Jan-22 02:15 170 3 gusting 6 13.3
2017-Jan-22 02:10 172 2 gusting 5 13.3
2017-Jan-22 02:05 172 1 gusting 4 13.3
2017-Jan-22 02:00 172 0 gusting 2 13.3
2017-Jan-22 01:55 172 0 gusting 1 13.3
2017-Jan-22 01:50 172 0 gusting 2 13.3
2017-Jan-22 01:45 172 0 gusting 2 13.3
2017-Jan-22 01:40 171 13.9
2017-Jan-22 01:35 13.9
2017-Jan-22 01:30 171 13.9
2017-Jan-22 01:25 171 13.9
2017-Jan-22 01:20 171 13.9
2017-Jan-22 01:15 171 13.9
2017-Jan-22 01:10 171 13.9
2017-Jan-22 01:05 171 13.9
2017-Jan-22 01:00 171 13.9
2017-Jan-22 00:55 171 13.9
2017-Jan-22 00:50 172 13.9
2017-Jan-22 00:45 172 0 gusting 1 13.9
2017-Jan-22 00:40 172 0 gusting 2 13.9
2017-Jan-22 00:35 171 0 gusting 2 13.9
2017-Jan-22 00:30 172 1 gusting 2 13.9
2017-Jan-22 00:25 172 1 gusting 4 13.9
2017-Jan-22 00:20 172 1 gusting 4 13.9
2017-Jan-22 00:15 172 1 gusting 4 13.9
2017-Jan-22 00:10 172 1 gusting 2 13.9
2017-Jan-22 00:05 171 0 gusting 2 13.3
2017-Jan-22 00:00 172 13.3
2017-Jan-21 23:55 172 13.3
2017-Jan-21 23:50 171 13.3
2017-Jan-21 23:45 171 13.3
2017-Jan-21 23:40 171 1 gusting 5 13.3
2017-Jan-21 23:35 174 3 gusting 6 13.3
2017-Jan-21 23:30 174 3 gusting 6 13.3
2017-Jan-21 23:25 171 3 gusting 6 13.3
2017-Jan-21 23:20 169 2 gusting 5 13.3
2017-Jan-21 23:15 168 2 gusting 5 13.3
2017-Jan-21 23:10 168 1 gusting 3 13.3
2017-Jan-21 23:05 169 0 gusting 3 13.3
2017-Jan-21 23:00 169 0 gusting 3 13.3
2017-Jan-21 22:55 169 0 gusting 3 13.3
2017-Jan-21 22:50 169 0 gusting 3 13.3
2017-Jan-21 22:45 169 0 gusting 3 13.3
2017-Jan-21 22:40 168 1 gusting 5 13.3
2017-Jan-21 22:35 170 3 gusting 7 13.3
2017-Jan-21 22:30 170 3 gusting 7 13.3
2017-Jan-21 22:25 165 2 gusting 5 13.3
2017-Jan-21 22:20 163 1 gusting 4 13.3
2017-Jan-21 22:15 163 1 gusting 3 13.9
2017-Jan-21 22:10 163 1 gusting 3 13.9
2017-Jan-21 22:05 163 0 gusting 3 13.9
2017-Jan-21 22:00 163 13.9
2017-Jan-21 21:55 162 13.9
2017-Jan-21 21:50 163 0 gusting 3 13.9
2017-Jan-21 21:45 163 0 gusting 3 13.9
2017-Jan-21 21:40 162 0 gusting 4 13.9
2017-Jan-21 21:35 159 1 gusting 4 13.9
2017-Jan-21 21:30 155 1 gusting 4 13.9
2017-Jan-21 21:25 154 1 gusting 3 13.9
2017-Jan-21 21:20 155 1 gusting 3 13.9
2017-Jan-21 21:15 154 1 gusting 3 13.9
2017-Jan-21 21:10 151 1 gusting 3 13.9
2017-Jan-21 21:05 146 0 gusting 3 13.9
2017-Jan-21 21:00 144 0 gusting 1 13.9
2017-Jan-21 20:55 143 0 gusting 2 13.9
2017-Jan-21 20:50 142 0 gusting 2 13.9
2017-Jan-21 20:45 141 0 gusting 2 13.9
2017-Jan-21 20:40 141 1 gusting 6 13.9
2017-Jan-21 20:35 135 2 gusting 6 13.9
2017-Jan-21 20:30 138 2 gusting 6 13.9
2017-Jan-21 20:25 149 2 gusting 7 13.9
2017-Jan-21 20:20 138 2 gusting 7 13.9
2017-Jan-21 20:15 125 1 gusting 6 13.9
2017-Jan-21 20:10 127 13.9
2017-Jan-21 20:05 127 13.9
2017-Jan-21 20:00 127 0 gusting 2 13.9
2017-Jan-21 19:55 134 1 gusting 5 13.9
2017-Jan-21 19:50 141 3 gusting 8 13.3
2017-Jan-21 19:45 143 3 gusting 9 13.3
2017-Jan-21 19:40 143 3 gusting 9 13.3
2017-Jan-21 19:35 139 3 gusting 8 13.3
2017-Jan-21 19:30 123 3 gusting 7 13.9
2017-Jan-21 19:25 106 3 gusting 6 13.9
2017-Jan-21 19:20 080 2 gusting 6 14.4
2017-Jan-21 19:15 023 2 gusting 5 14.4
2017-Jan-21 19:10 358 1 gusting 5 14.4
2017-Jan-21 19:05 169 14.4
2017-Jan-21 19:00 170 14.4
2017-Jan-21 18:55 170 0 gusting 3 14.4
2017-Jan-21 18:50 170 0 gusting 5 14.4
2017-Jan-21 18:45 174 1 gusting 5 14.4
2017-Jan-21 18:40 174 1 gusting 4 14.4
2017-Jan-21 18:35 169 2 gusting 6 14.4
2017-Jan-21 18:30 163 4 gusting 7 13.9
2017-Jan-21 18:25 155 4 gusting 7 13.9
2017-Jan-21 18:20 136 2 gusting 6 13.9
2017-Jan-21 18:15 095 1 gusting 6 13.9
2017-Jan-21 18:10 002 1 gusting 7 13.9
2017-Jan-21 18:05 349 4 gusting 8 13.9
2017-Jan-21 18:00 349 4 gusting 8 14.4
2017-Jan-21 17:55 353 4 gusting 7 14.4
2017-Jan-21 17:50 353 5 gusting 7 14.4
2017-Jan-21 17:45 001 3 gusting 7 15.0
2017-Jan-21 17:40 154 1 gusting 7 15.0
2017-Jan-21 17:35 154 1 gusting 4 15.0
2017-Jan-21 17:30 161 1 gusting 4 15.0
2017-Jan-21 17:25 164 1 gusting 5 15.0
2017-Jan-21 17:20 167 2 gusting 6 15.0
2017-Jan-21 17:15 169 3 gusting 7 14.4
2017-Jan-21 17:10 157 3 gusting 7 14.4
2017-Jan-21 17:05 116 1 gusting 6 15.0
2017-Jan-21 17:00 039 0 gusting 2 15.0
2017-Jan-21 16:55 032 1 gusting 5 15.0
2017-Jan-21 16:50 024 1 gusting 5 15.6
2017-Jan-21 16:45 351 2 gusting 7 15.6
2017-Jan-21 16:40 328 4 gusting 7 15.6
2017-Jan-21 16:35 333 4 gusting 8 15.6
2017-Jan-21 16:30 334 4 gusting 8 15.6
2017-Jan-21 16:25 323 4 gusting 6 15.6
2017-Jan-21 16:20 326 3 gusting 6 16.1
2017-Jan-21 16:15 348 3 gusting 6 16.1
2017-Jan-21 16:10 017 2 gusting 5 16.1
2017-Jan-21 16:05 004 1 gusting 4 16.1
2017-Jan-21 16:00 328 1 gusting 3 16.1
2017-Jan-21 15:55 342 1 gusting 3 16.1
2017-Jan-21 15:50 359 1 gusting 4 16.1
2017-Jan-21 15:45 355 2 gusting 6 16.1
2017-Jan-21 15:40 350 2 gusting 6 16.1
2017-Jan-21 15:35 015 1 gusting 4 16.1
2017-Jan-21 15:30 035 2 gusting 3 16.1
2017-Jan-21 15:25 004 2 gusting 5 16.1
2017-Jan-21 15:20 347 1 gusting 5 16.1
2017-Jan-21 15:15 003 2 gusting 6 16.1
2017-Jan-21 15:10 001 3 gusting 6 16.1
2017-Jan-21 15:05 346 3 gusting 6 16.1
2017-Jan-21 15:00 333 4 gusting 9 16.1
2017-Jan-21 14:55 333 3 gusting 9 16.7
2017-Jan-21 14:50 334 1 gusting 6 16.7
2017-Jan-21 14:45 337 0 gusting 3 16.7
2017-Jan-21 14:40 342 0 gusting 4 16.1
2017-Jan-21 14:35 354 0 gusting 4 16.1
2017-Jan-21 14:30 005 0 gusting 4 16.1
2017-Jan-21 14:25 006 0 gusting 2 15.6
2017-Jan-21 14:20 005 1 gusting 4 15.6
2017-Jan-21 14:15 010 2 gusting 5 15.6
2017-Jan-21 14:10 006 3 gusting 5 15.6
2017-Jan-21 14:05 350 3 gusting 5 15.6
2017-Jan-21 14:00 348 3 gusting 6 15.6